[[{"header":{"parameterUnit":"m.s-1","parameterCategory":2,"la1":30.2991,"la2":30.254,"lo1":-89.0895,"lo2":-89.0444,"dy":0.0017,"dx":0.0017,"nx":28,"ny":28,"refTime":"2025-12-30T03:00:00:Z","depth":"0","parameterNumber":2,"parameterNumberName":"U-component_of_CURRENTS"},"data":[0,0,0,0,0,0,0,0,0,0,0,0,0,0,0,0,0,0,0,0,0,0,0,0,0,0,0,0,0,0,0,0,0,0,0,0,0,0,0,0,0,0,0,0,0,0,0,0,0,0,0,0,0,0,0,0,0,0,0.2037,0.2037,0,0.2088,0.2088,0.2089,0.2095,0.2094,0.2094,0.2094,0.2084,0.2084,0.2084,0,0,0,0,0,0,0,0,0,0,0,0,0,0.1931,0.1933,0.2037,0.2038,0.2038,0.2088,0.2088,0.2089,0.2095,0.2094,0.2094,0.2094,0.2084,0.2084,0.2084,0,0,0,0,0,0,0,0,0,0,0,0,0,0.1977,0.1934,0.2037,0.2049,0.2051,0.2088,0.2088,0.2089,0.2095,0.2094,0.2094,0.2093,0.2084,0.2084,0.2084,0.2092,0,0,0.2084,0.2084,0,0,0,0,0,0,0,0,0.1974,0.198,0.2046,0.2048,0.2051,0.2087,0.2048,0.2088,0.2095,0.2075,0.2094,0.2093,0.2081,0.2081,0.2089,0.2092,0.2091,0.2084,0.2084,0.2084,0.2084,0,0,0,0,0,0,0,0.1971,0.1978,0.2054,0.2047,0.205,0.2048,0.2054,0.2055,0.2077,0.2077,0.2078,0.2088,0.2081,0.2089,0.2089,0.2091,0.2084,0.2084,0.2084,0.2084,0.2118,0.2119,0,0,0,0,0,0,0.1971,0.1975,0.2053,0.2056,0.2013,0.2051,0.2057,0.2073,0.2078,0.208,0.2089,0.2088,0.2089,0.2089,0.2088,0.2119,0.2084,0.2084,0.2084,0.2117,0.2119,0.212,0,0,0,0,0,0,0.1969,0.1978,0.2051,0.2018,0.2028,0.2053,0.2071,0.2075,0.2086,0.2088,0.2088,0.2097,0.2089,0.2088,0.21,0.2118,0.2084,0.2084,0.2116,0.2118,0.2119,0.2167,0,0,0,0,0,0,0.1966,0.1977,0.1984,0.2019,0.203,0.2078,0.2072,0.2076,0.2094,0.2094,0.2095,0.2093,0.2089,0.21,0.21,0.2117,0.2084,0.2115,0.2117,0.2119,0.2165,0.217,0.2175,0,0,0,0,0,0.1962,0.1976,0.1984,0.1993,0.2041,0.2079,0.2084,0.2099,0.2094,0.2105,0.2108,0.2094,0.2111,0.2101,0.21,0.2118,0.2114,0.2117,0.2119,0.2162,0.2169,0.2175,0,0,0,0,0,0,0.193,0.1979,0.1989,0.2016,0.2047,0.2081,0.2093,0.2102,0.2114,0.2111,0.2106,0.2105,0.2123,0.2114,0.2103,0.2133,0.211,0.2112,0.2143,0.215,0.2155,0.2157,0.2084,0,0,0,0,0,0.1929,0.1954,0.1997,0.2018,0.2036,0.2064,0.2079,0.2093,0.2112,0.2117,0.2118,0.2121,0.2132,0.2135,0.214,0.2155,0.216,0.2166,0.2171,0.2176,0.2177,0.2204,0.2212,0.2126,0.2126,0.2126,0,0,0.1921,0.1952,0.1965,0.2013,0.2038,0.207,0.2072,0.2103,0.2126,0.2113,0.2135,0.2139,0.2141,0.2162,0.2169,0.2156,0.2206,0.2178,0.2182,0.2181,0.2207,0.2216,0.2223,0.2128,0.2128,0.2127,0,0,0.1925,0.1949,0.1974,0.2005,0.2051,0.2073,0.2083,0.2121,0.2135,0.216,0.216,0.2176,0.2185,0.2198,0.2203,0.2239,0.2234,0.2239,0.2266,0.2293,0.23,0.2306,0.2339,0.2348,0.224,0.224,0.224,0,0.191,0.1954,0.1985,0.202,0.2047,0.2075,0.2107,0.213,0.2164,0.2181,0.217,0.2206,0.2204,0.2241,0.2254,0.2251,0.2266,0.2242,0.23,0.2306,0.2312,0.2344,0.2353,0.2243,0.2242,0.2242,0.2242,0,0.194,0.1973,0.1992,0.2047,0.2076,0.2111,0.2151,0.2176,0.219,0.2213,0.225,0.2256,0.2277,0.2283,0.2278,0.2323,0.2322,0.2305,0.2285,0.2324,0.2355,0.2363,0.2246,0.2245,0.2245,0.2244,0,0,0.1912,0.1996,0.2002,0.2031,0.2096,0.2122,0.2167,0.2218,0.2248,0.2272,0.2311,0.2333,0.2338,0.2345,0.2347,0.2368,0.2425,0.2355,0.2355,0.2389,0.2496,0.2544,0.2558,0.242,0.2422,0.2423,0.2506,0,0.1926,0.199,0.203,0.2083,0.212,0.2163,0.2203,0.2249,0.2282,0.2325,0.2346,0.2379,0.2363,0.2378,0.2399,0.242,0.2448,0.2405,0.2451,0.2453,0.2492,0.257,0.2612,0.2694,0.2515,0.2516,0.2517,0,0.1945,0.1987,0.2042,0.2112,0.2132,0.2163,0.2233,0.2273,0.2341,0.2367,0.2407,0.2427,0.2474,0.2444,0.2506,0.2481,0.2493,0.2503,0.2506,0.2538,0.2518,0.2623,0.2716,0.2754,0.2531,0.2529,0.2529,0,0.1916,0.1994,0.2036,0.2061,0.2142,0.2171,0.2212,0.2284,0.2323,0.2397,0.2434,0.2486,0.2521,0.2544,0.2576,0.2545,0.2643,0.2599,0.2656,0.2659,0.2698,0.2702,0.2833,0.2641,0.2641,0.2641,0.2641,0,0.1919,0.195,0.2024,0.2047,0.2093,0.2156,0.2207,0.226,0.2338,0.2401,0.2451,0.2514,0.2547,0.2608,0.2612,0.2686,0.2678,0.2686,0.2694,0.2718,0.2723,0.2756,0.2747,0.2644,0.2643,0.2643,0.2642,0,0.1883,0.1934,0.1981,0.206,0.2081,0.2113,0.2196,0.2238,0.232,0.2406,0.2436,0.2548,0.2648,0.2688,0.2746,0.275,0.2775,0.2815,0.2849,0.286,0.2937,0.2927,0.2881,0.2759,0.2895,0.2897,0.2899,0,0.187,0.1894,0.197,0.1993,0.2027,0.2079,0.212,0.2212,0.2275,0.2436,0.2487,0.2616,0.2721,0.2847,0.2901,0.2959,0.2856,0.3001,0.2945,0.2981,0.2976,0.2807,0.2691,0.3017,0.3019,0.3021,0.3023,0,0.1836,0.1864,0.19,0.1952,0.1993,0.2042,0.212,0.2166,0.2298,0.2391,0.2544,0.2644,0.2831,0.295,0.3049,0.3072,0.2948,0.3043,0.3075,0.3093,0.2923,0.2797,0.2918,0.304,0.3039,0.3037,0.3036,0.3036,0.1795,0.181,0.1858,0.1905,0.1951,0.2007,0.2031,0.2142,0.2241,0.2405,0.2544,0.2726,0.2983,0.3154,0.3146,0.3258,0.3074,0.3243,0.3234,0.3059,0.2933,0.3103,0.3233,0.3232,0.3232,0.3231,0.3231,0,0.1736,0.1765,0.1809,0.1858,0.1888,0.1938,0.2028,0.2063,0.2167,0.2397,0.2544,0.2915,0.3118,0.3284,0.3515,0.3494,0.3249,0.3438,0.3237,0.3104,0.3306,0.3309,0.3469,0.3469,0.3469,0.3469,0.3469,0.3469,0.1702,0.1716,0.1752,0.1781,0.1818,0.1838,0.1875,0.1958,0.2115,0.2382,0.2634,0.2849,0.3346,0.3792,0.3906,0.3779,0.3463,0.3398,0.323,0.3483,0.3463,0.3444,0.3447,0.3633,0.3634,0.2927,0.2923,0.292]},{"header":{"parameterUnit":"m.s-1","parameterCategory":2,"la1":30.2991,"la2":30.254,"lo1":-89.0895,"lo2":-89.0444,"dy":0.0017,"dx":0.0017,"nx":28,"ny":28,"refTime":"2025-12-30T03:00:00:Z","depth":"0","parameterNumber":3,"parameterNumberName":"V-component_of_CURRENTS"},"data":[0,0,0,0,0,0,0,0,0,0,0,0,0,0,0,0,0,0,0,0,0,0,0,0,0,0,0,0,0,0,0,0,0,0,0,0,0,0,0,0,0,0,0,0,0,0,0,0,0,0,0,0,0,0,0,0,0,0,-0.0414,-0.0414,0,-0.0465,-0.0466,-0.0467,-0.0508,-0.0508,-0.0509,-0.0509,-0.0564,-0.0565,-0.0566,0,0,0,0,0,0,0,0,0,0,0,0,0,-0.0401,-0.04,-0.0414,-0.0414,-0.0415,-0.0465,-0.0466,-0.0467,-0.0508,-0.0508,-0.0509,-0.0509,-0.0564,-0.0565,-0.0566,0,0,0,0,0,0,0,0,0,0,0,0,0,-0.0426,-0.04,-0.0414,-0.0441,-0.0444,-0.0465,-0.0466,-0.0467,-0.0508,-0.0508,-0.0509,-0.0509,-0.0563,-0.0565,-0.0567,-0.0568,0,0,-0.0572,-0.0573,0,0,0,0,0,0,0,0,-0.0424,-0.0426,-0.0436,-0.0439,-0.0442,-0.048,-0.0482,-0.0501,-0.0508,-0.0485,-0.0509,-0.051,-0.0535,-0.0539,-0.0549,-0.057,-0.0573,-0.0572,-0.0573,-0.0574,-0.0574,0,0,0,0,0,0,0,-0.0422,-0.0424,-0.0435,-0.0437,-0.044,-0.0467,-0.0471,-0.0486,-0.0508,-0.0487,-0.049,-0.0493,-0.0537,-0.0548,-0.0551,-0.0574,-0.0572,-0.0574,-0.0575,-0.0575,-0.0607,-0.0607,0,0,0,0,0,0,-0.041,-0.0422,-0.0434,-0.0437,-0.0433,-0.0467,-0.0471,-0.0468,-0.0507,-0.0513,-0.0493,-0.0495,-0.0544,-0.0549,-0.0553,-0.0551,-0.0574,-0.0575,-0.0576,-0.0607,-0.0607,-0.0607,0,0,0,0,0,0,-0.041,-0.0411,-0.0432,-0.0431,-0.0435,-0.0466,-0.0463,-0.0469,-0.0478,-0.0512,-0.0518,-0.0495,-0.0545,-0.0551,-0.0564,-0.0554,-0.0576,-0.0578,-0.0607,-0.0607,-0.0607,-0.0551,0,0,0,0,0,0,-0.0409,-0.041,-0.0403,-0.0429,-0.0435,-0.0435,-0.0462,-0.047,-0.0479,-0.0482,-0.0516,-0.0521,-0.0546,-0.0561,-0.0566,-0.0557,-0.0579,-0.0608,-0.0607,-0.0607,-0.0553,-0.0549,-0.0545,0,0,0,0,0,-0.0408,-0.0389,-0.0402,-0.0404,-0.0424,-0.0434,-0.0439,-0.0464,-0.0478,-0.0475,-0.0502,-0.052,-0.0562,-0.0562,-0.0568,-0.0559,-0.0608,-0.0607,-0.0607,-0.0555,-0.055,-0.0545,0,0,0,0,0,0,-0.0375,-0.0392,-0.0407,-0.0394,-0.0411,-0.044,-0.0438,-0.0458,-0.0477,-0.048,-0.0516,-0.0524,-0.0534,-0.0553,-0.0553,-0.0568,-0.0588,-0.0589,-0.0547,-0.0542,-0.0538,-0.0518,-0.0581,0,0,0,0,0,-0.0365,-0.0359,-0.0382,-0.0372,-0.0377,-0.0408,-0.0415,-0.0432,-0.0453,-0.0463,-0.0488,-0.0515,-0.0536,-0.0544,-0.0566,-0.057,-0.0595,-0.0569,-0.0565,-0.0561,-0.0549,-0.0586,-0.0584,-0.0605,-0.0605,-0.0605,0,0,-0.0349,-0.0358,-0.0355,-0.0365,-0.0381,-0.0376,-0.0413,-0.0416,-0.0414,-0.0464,-0.0468,-0.0501,-0.0535,-0.0544,-0.0549,-0.0558,-0.0568,-0.0561,-0.0557,-0.0547,-0.0585,-0.0583,-0.0581,-0.0605,-0.0605,-0.0605,0,0,-0.0311,-0.0322,-0.0305,-0.0314,-0.033,-0.0348,-0.0345,-0.0372,-0.0386,-0.0396,-0.0434,-0.0458,-0.0487,-0.0511,-0.0527,-0.0512,-0.0548,-0.0521,-0.0481,-0.0517,-0.0515,-0.0514,-0.0541,-0.0543,-0.0517,-0.0517,-0.0517,0,-0.0292,-0.0274,-0.0301,-0.0288,-0.0287,-0.033,-0.0311,-0.0329,-0.0358,-0.0365,-0.0387,-0.0439,-0.0471,-0.0483,-0.0482,-0.0501,-0.0527,-0.0495,-0.0511,-0.051,-0.051,-0.0538,-0.0541,-0.0514,-0.0515,-0.0515,-0.0515,0,-0.0245,-0.0232,-0.022,-0.0219,-0.0222,-0.0212,-0.0239,-0.0246,-0.0272,-0.0297,-0.0319,-0.037,-0.04,-0.0418,-0.0446,-0.0457,-0.0478,-0.0503,-0.052,-0.0504,-0.0535,-0.0539,-0.051,-0.0511,-0.0512,-0.0513,0,0,-0.0199,-0.0188,-0.0185,-0.0169,-0.0184,-0.0177,-0.0174,-0.0183,-0.0177,-0.0222,-0.0222,-0.0275,-0.0313,-0.0333,-0.0378,-0.041,-0.0436,-0.045,-0.0453,-0.047,-0.051,-0.0541,-0.0549,-0.0468,-0.0468,-0.0468,-0.0531,0,-0.0154,-0.0108,-0.012,-0.0078,-0.0056,-0.0088,-0.0079,-0.0095,-0.0124,-0.0137,-0.0199,-0.022,-0.0278,-0.0293,-0.0335,-0.041,-0.0443,-0.0416,-0.0528,-0.053,-0.0556,-0.0553,-0.059,-0.065,-0.0535,-0.0536,-0.0536,0,-0.0104,-0.008,-0.0029,-0.0002,0.0005,0.0018,0.0025,0.0026,-0.001,-0.0033,-0.0076,-0.0128,-0.018,-0.0234,-0.0348,-0.033,-0.0409,-0.0472,-0.0477,-0.0525,-0.0569,-0.0649,-0.0662,-0.0885,-0.0542,-0.0542,-0.0542,0,-0.0054,-0.0014,0.0032,0.004,0.006,0.0074,0.0077,0.0056,0.0065,0.0028,0.0028,-0.0053,-0.0087,-0.0197,-0.033,-0.034,-0.0458,-0.0492,-0.0594,-0.0597,-0.0658,-0.0666,-0.0894,-0.0569,-0.0569,-0.0569,-0.0569,0,0.0002,0.0038,0.006,0.0085,0.0142,0.0128,0.0169,0.0158,0.0145,0.0169,0.0084,0.0084,-0.0081,-0.017,-0.03,-0.0454,-0.0439,-0.0581,-0.0615,-0.064,-0.0645,-0.0866,-0.0994,-0.0571,-0.0571,-0.057,-0.057,0,0.0053,0.0064,0.0121,0.0154,0.0169,0.0206,0.0234,0.0261,0.0238,0.0267,0.0262,0.0181,0.0066,-0.0101,-0.0279,-0.041,-0.07,-0.0616,-0.0628,-0.0662,-0.0967,-0.1088,-0.135,-0.1458,-0.0738,-0.0739,-0.074,0,0.0083,0.0119,0.0177,0.0216,0.0232,0.028,0.0316,0.0309,0.0343,0.0335,0.0364,0.0261,0.0209,-0.0067,-0.0322,-0.0558,-0.0756,-0.0745,-0.0776,-0.099,-0.1151,-0.1244,-0.1322,-0.0837,-0.0839,-0.0841,-0.0842,0,0.0146,0.0164,0.0213,0.0293,0.0342,0.0404,0.0454,0.0497,0.05,0.0519,0.0534,0.0488,0.0217,-0.004,-0.0374,-0.0557,-0.0943,-0.0781,-0.101,-0.1254,-0.1364,-0.148,-0.0785,-0.0854,-0.0853,-0.0852,-0.0851,-0.0851,0.0194,0.0242,0.0305,0.0384,0.0444,0.0527,0.0585,0.064,0.0702,0.0744,0.068,0.0637,0.0231,-0.0234,-0.0518,-0.1066,-0.1054,-0.1226,-0.1355,-0.1427,-0.1548,-0.0872,-0.0974,-0.0974,-0.0973,-0.0973,-0.0972,0,0.026,0.0313,0.0391,0.0484,0.0562,0.0577,0.0682,0.0741,0.0829,0.0852,0.0848,0.0593,0.0096,-0.041,-0.1116,-0.1532,-0.1706,-0.179,-0.1951,-0.1999,-0.1407,-0.1428,-0.1624,-0.1624,-0.1624,-0.1623,-0.1623,-0.1623,0.0296,0.0389,0.0431,0.0573,0.0634,0.0741,0.0805,0.0886,0.0931,0.0936,0.0876,0.0795,0.0348,-0.0925,-0.1863,-0.2095,-0.243,-0.2528,-0.2665,-0.2287,-0.2245,-0.2204,-0.2255,-0.2621,-0.2622,-0.3207,-0.3214,-0.3218]}],[{"header":{"parameterUnit":"m.s-1","parameterCategory":2,"la1":30.2991,"la2":30.254,"lo1":-89.0895,"lo2":-89.0444,"dy":0.0017,"dx":0.0017,"nx":28,"ny":28,"refTime":"2025-12-30T03:00:00:Z","depth":"2","parameterNumber":2,"parameterNumberName":"U-component_of_CURRENTS"},"data":[0,0,0,0,0,0,0,0,0,0,0,0,0,0,0,0,0,0,0,0,0,0,0,0,0,0,0,0,0,0,0,0,0,0,0,0,0,0,0,0,0,0,0,0,0,0,0,0,0,0,0,0,0,0,0,0,0,0,0.2004,0.2004,0,0.2054,0.2054,0.2055,0.2061,0.2061,0.2061,0.2061,0.2052,0.2052,0.2052,0,0,0,0,0,0,0,0,0,0,0,0,0,0.19,0.1902,0.2004,0.2004,0.2005,0.2054,0.2054,0.2055,0.2061,0.2061,0.2061,0.206,0.2052,0.2052,0.2052,0,0,0,0,0,0,0,0,0,0,0,0,0,0.1945,0.1902,0.2003,0.2016,0.2018,0.2054,0.2054,0.2055,0.2061,0.2061,0.2061,0.206,0.2052,0.2052,0.2052,0.2059,0,0,0.2052,0.2052,0,0,0,0,0,0,0,0,0.1942,0.1948,0.2014,0.2016,0.2018,0.2053,0.2015,0.2054,0.2061,0.2042,0.2061,0.206,0.2049,0.2049,0.2056,0.2059,0.2058,0.2052,0.2052,0.2051,0.2051,0,0,0,0,0,0,0,0.1939,0.1946,0.2021,0.2015,0.2017,0.2015,0.2021,0.2022,0.2044,0.2044,0.2045,0.2055,0.2049,0.2056,0.2056,0.2058,0.2052,0.2052,0.2051,0.2051,0.2086,0.2087,0,0,0,0,0,0,0.194,0.1943,0.2019,0.2023,0.1981,0.2018,0.2024,0.204,0.2045,0.2047,0.2055,0.2055,0.2057,0.2056,0.2056,0.2087,0.2052,0.2051,0.2051,0.2085,0.2086,0.2087,0,0,0,0,0,0,0.1937,0.1946,0.2017,0.1986,0.1995,0.202,0.2038,0.2041,0.2053,0.2055,0.2055,0.2064,0.2056,0.2056,0.2067,0.2085,0.2051,0.2051,0.2084,0.2085,0.2086,0.2135,0,0,0,0,0,0,0.1934,0.1945,0.1952,0.1986,0.1997,0.2044,0.2039,0.2043,0.206,0.2061,0.2062,0.2061,0.2056,0.2067,0.2067,0.2085,0.2051,0.2083,0.2084,0.2086,0.2132,0.2138,0.2142,0,0,0,0,0,0.193,0.1944,0.1952,0.1961,0.2008,0.2045,0.2051,0.2065,0.2061,0.2072,0.2075,0.2061,0.2078,0.2068,0.2068,0.2086,0.2082,0.2084,0.2086,0.213,0.2137,0.2142,0,0,0,0,0,0,0.1899,0.1948,0.1957,0.1984,0.2015,0.2047,0.206,0.2069,0.208,0.2079,0.2073,0.2073,0.2091,0.2081,0.2071,0.2101,0.2077,0.208,0.2111,0.2117,0.2122,0.2124,0.2051,0,0,0,0,0,0.1898,0.1923,0.1965,0.1986,0.2004,0.2032,0.2047,0.2061,0.2079,0.2084,0.2086,0.2089,0.2099,0.2102,0.2107,0.2122,0.2127,0.2133,0.2138,0.2143,0.2145,0.2171,0.2179,0.2094,0.2094,0.2094,0,0,0.1891,0.1922,0.1934,0.1982,0.2006,0.2037,0.2039,0.207,0.2093,0.208,0.2103,0.2107,0.2108,0.2129,0.2136,0.2123,0.2173,0.2145,0.2149,0.2148,0.2174,0.2182,0.219,0.2095,0.2095,0.2095,0,0,0.1895,0.192,0.1944,0.1975,0.2019,0.2041,0.2051,0.2089,0.2102,0.2128,0.2128,0.2144,0.2153,0.2165,0.217,0.2206,0.2201,0.2206,0.2233,0.2259,0.2267,0.2273,0.2305,0.2314,0.2207,0.2207,0.2207,0,0.1881,0.1924,0.1955,0.199,0.2016,0.2044,0.2075,0.2097,0.2131,0.2148,0.2138,0.2174,0.2172,0.2208,0.2221,0.2218,0.2233,0.221,0.2267,0.2273,0.2279,0.231,0.2319,0.221,0.221,0.2209,0.2209,0,0.191,0.1944,0.1962,0.2016,0.2045,0.2079,0.2119,0.2144,0.2158,0.2181,0.2218,0.2224,0.2245,0.225,0.2245,0.229,0.2289,0.2272,0.2251,0.229,0.2321,0.2329,0.2214,0.2213,0.2212,0.2211,0,0,0.1884,0.1966,0.1972,0.2001,0.2065,0.209,0.2135,0.2185,0.2215,0.2239,0.2278,0.23,0.2306,0.2312,0.2314,0.2335,0.2391,0.2322,0.2322,0.2355,0.2461,0.2507,0.252,0.2386,0.2388,0.2389,0.2471,0,0.1897,0.1961,0.2001,0.2053,0.2089,0.2131,0.2171,0.2216,0.225,0.2292,0.2313,0.2346,0.233,0.2345,0.2366,0.2387,0.2414,0.2371,0.2416,0.2418,0.2455,0.2532,0.2295,0.2352,0.2479,0.2481,0.2482,0,0.1916,0.1958,0.2013,0.2082,0.2101,0.2133,0.2201,0.2241,0.2308,0.2334,0.2374,0.2394,0.2441,0.2411,0.2472,0.2448,0.2459,0.2468,0.2471,0.2501,0.248,0.2331,0.2363,0.2496,0.2495,0.2494,0.2493,0,0.1889,0.1965,0.2007,0.2032,0.2112,0.2141,0.2182,0.2252,0.2292,0.2365,0.2402,0.2453,0.2488,0.251,0.2541,0.251,0.2606,0.2563,0.2617,0.262,0.2421,0.2405,0.2604,0.2604,0.2604,0.2604,0.2603,0,0.1892,0.1922,0.1996,0.2019,0.2064,0.2127,0.2178,0.223,0.2307,0.237,0.2419,0.2482,0.2514,0.2573,0.2577,0.2648,0.2641,0.2647,0.2654,0.2435,0.242,0.2535,0.2526,0.2607,0.2606,0.2606,0.2605,0,0.1857,0.1908,0.1954,0.2032,0.2054,0.2085,0.2167,0.221,0.2291,0.2377,0.2406,0.2516,0.2613,0.2652,0.2709,0.2711,0.2755,0.2773,0.2529,0.2509,0.2738,0.273,0.2845,0.2847,0.285,0.2851,0.2853,0,0.1844,0.1868,0.1944,0.1967,0.2,0.2053,0.2094,0.2184,0.2246,0.2406,0.2456,0.2583,0.2676,0.2798,0.2788,0.2828,0.2845,0.2665,0.2571,0.2772,0.2767,0.2756,0.2746,0.2315,0.2312,0.2309,0.2307,0,0.1811,0.1839,0.1874,0.1927,0.1968,0.2016,0.2094,0.2139,0.227,0.2352,0.2502,0.2591,0.2718,0.2673,0.2742,0.2725,0.2642,0.2624,0.2881,0.232,0.2287,0.2278,0.2282,0.2285,0.2288,0.2289,0.229,0.2291,0.1771,0.1786,0.1833,0.188,0.1926,0.1981,0.2004,0.2075,0.2158,0.224,0.242,0.2448,0.252,0.2498,0.2473,0.244,0.2612,0.2494,0.2493,0.2497,0.2451,0.2427,0.2442,0.2445,0.2448,0.245,0.2452,0,0.1699,0.1742,0.1785,0.1834,0.1844,0.1913,0.2001,0.197,0.2009,0.2096,0.2167,0.2045,0.2069,0.2131,0.2052,0.2126,0.2011,0.2059,0.1861,0.1888,0.1911,0.1826,0.1655,0.1653,0.165,0.1648,0,0,0.1662,0.1669,0.1703,0.172,0.177,0.1745,0.178,0.1744,0.1761,0.1717,0.1708,0.1857,0.2034,0.1762,0.1796,0.1707,0.1758,0.1644,0.2287,0.2076,0.2094,0.2182,0.2087,0,0,0,0,0]},{"header":{"parameterUnit":"m.s-1","parameterCategory":2,"la1":30.2991,"la2":30.254,"lo1":-89.0895,"lo2":-89.0444,"dy":0.0017,"dx":0.0017,"nx":28,"ny":28,"refTime":"2025-12-30T03:00:00:Z","depth":"2","parameterNumber":3,"parameterNumberName":"V-component_of_CURRENTS"},"data":[0,0,0,0,0,0,0,0,0,0,0,0,0,0,0,0,0,0,0,0,0,0,0,0,0,0,0,0,0,0,0,0,0,0,0,0,0,0,0,0,0,0,0,0,0,0,0,0,0,0,0,0,0,0,0,0,0,0,-0.0353,-0.0353,0,-0.0403,-0.0404,-0.0404,-0.0446,-0.0447,-0.0447,-0.0447,-0.0502,-0.0503,-0.0504,0,0,0,0,0,0,0,0,0,0,0,0,0,-0.0339,-0.0339,-0.0352,-0.0353,-0.0354,-0.0403,-0.0404,-0.0405,-0.0446,-0.0447,-0.0447,-0.0447,-0.0502,-0.0503,-0.0504,0,0,0,0,0,0,0,0,0,0,0,0,0,-0.0364,-0.0339,-0.0352,-0.038,-0.0382,-0.0403,-0.0404,-0.0405,-0.0446,-0.0447,-0.0447,-0.0448,-0.0501,-0.0503,-0.0504,-0.0504,0,0,-0.051,-0.051,0,0,0,0,0,0,0,0,-0.0362,-0.0364,-0.0375,-0.0378,-0.0381,-0.0418,-0.0419,-0.0438,-0.0446,-0.0423,-0.0447,-0.0448,-0.0473,-0.0477,-0.0487,-0.0507,-0.0509,-0.051,-0.0511,-0.0511,-0.0512,0,0,0,0,0,0,0,-0.0361,-0.0363,-0.0374,-0.0375,-0.0379,-0.0405,-0.0409,-0.0423,-0.0445,-0.0425,-0.0428,-0.0432,-0.0475,-0.0485,-0.0489,-0.051,-0.051,-0.0511,-0.0512,-0.0513,-0.0544,-0.0544,0,0,0,0,0,0,-0.0349,-0.0361,-0.0372,-0.0375,-0.0372,-0.0405,-0.0409,-0.0406,-0.0445,-0.0451,-0.0431,-0.0433,-0.0482,-0.0486,-0.0491,-0.049,-0.0511,-0.0513,-0.0514,-0.0544,-0.0544,-0.0543,0,0,0,0,0,0,-0.0348,-0.0349,-0.037,-0.0369,-0.0373,-0.0404,-0.0401,-0.0407,-0.0416,-0.045,-0.0456,-0.0434,-0.0483,-0.0488,-0.0502,-0.0492,-0.0514,-0.0515,-0.0544,-0.0544,-0.0544,-0.049,0,0,0,0,0,0,-0.0348,-0.0349,-0.0342,-0.0368,-0.0373,-0.0373,-0.0401,-0.0408,-0.0417,-0.0421,-0.0454,-0.046,-0.0483,-0.0499,-0.0504,-0.0495,-0.0517,-0.0544,-0.0544,-0.0544,-0.0492,-0.0488,-0.0484,0,0,0,0,0,-0.0347,-0.0328,-0.0341,-0.0343,-0.0363,-0.0372,-0.0377,-0.0402,-0.0417,-0.0414,-0.0441,-0.0459,-0.05,-0.05,-0.0506,-0.0497,-0.0545,-0.0544,-0.0544,-0.0493,-0.0488,-0.0484,0,0,0,0,0,0,-0.0315,-0.0332,-0.0346,-0.0333,-0.035,-0.0379,-0.0376,-0.0396,-0.0416,-0.0419,-0.0455,-0.0462,-0.0472,-0.0492,-0.0491,-0.0506,-0.0526,-0.0526,-0.0486,-0.0481,-0.0478,-0.0458,-0.0518,0,0,0,0,0,-0.0305,-0.0299,-0.0322,-0.0312,-0.0317,-0.0347,-0.0355,-0.0371,-0.0392,-0.0402,-0.0427,-0.0454,-0.0474,-0.0483,-0.0504,-0.0508,-0.0532,-0.0507,-0.0503,-0.05,-0.0488,-0.0525,-0.0523,-0.0542,-0.0542,-0.0542,0,0,-0.029,-0.0299,-0.0295,-0.0306,-0.0321,-0.0316,-0.0353,-0.0356,-0.0354,-0.0403,-0.0407,-0.044,-0.0473,-0.0482,-0.0488,-0.0496,-0.0507,-0.0499,-0.0496,-0.0486,-0.0524,-0.0522,-0.052,-0.0542,-0.0542,-0.0542,0,0,-0.0253,-0.0263,-0.0247,-0.0255,-0.0272,-0.0289,-0.0287,-0.0313,-0.0327,-0.0337,-0.0375,-0.0399,-0.0428,-0.0451,-0.0466,-0.0452,-0.0488,-0.0461,-0.0423,-0.0458,-0.0457,-0.0456,-0.0483,-0.0485,-0.0457,-0.0457,-0.0457,0,-0.0235,-0.0217,-0.0243,-0.023,-0.0229,-0.0272,-0.0253,-0.0271,-0.03,-0.0307,-0.0329,-0.0381,-0.0411,-0.0424,-0.0423,-0.0442,-0.0467,-0.0436,-0.0453,-0.0452,-0.0452,-0.0481,-0.0483,-0.0455,-0.0455,-0.0455,-0.0455,0,-0.0188,-0.0175,-0.0164,-0.0162,-0.0166,-0.0155,-0.0182,-0.0189,-0.0215,-0.024,-0.0263,-0.0314,-0.0343,-0.0361,-0.0388,-0.04,-0.042,-0.0445,-0.0461,-0.0447,-0.0478,-0.0482,-0.0451,-0.0452,-0.0452,-0.0453,0,0,-0.0143,-0.0132,-0.0129,-0.0113,-0.0128,-0.0121,-0.0118,-0.0127,-0.0123,-0.0168,-0.0168,-0.022,-0.0258,-0.0278,-0.0322,-0.0354,-0.0382,-0.0394,-0.0397,-0.0415,-0.0457,-0.0487,-0.0495,-0.0413,-0.0413,-0.0414,-0.0478,0,-0.0099,-0.0054,-0.0065,-0.0024,-0.0002,-0.0034,-0.0024,-0.0041,-0.0071,-0.0084,-0.0146,-0.0167,-0.0224,-0.024,-0.0282,-0.0356,-0.0389,-0.0361,-0.0473,-0.0476,-0.05,-0.0499,-0.0449,-0.0503,-0.0482,-0.0483,-0.0483,0,-0.005,-0.0026,0.0025,0.0052,0.0058,0.0071,0.0077,0.0078,0.0042,0.0018,-0.0025,-0.0077,-0.0129,-0.0182,-0.0297,-0.0278,-0.0357,-0.0419,-0.0424,-0.0471,-0.0513,-0.0516,-0.0512,-0.049,-0.049,-0.0489,-0.0489,0,-0.0001,0.0039,0.0084,0.0092,0.0112,0.0125,0.0129,0.0107,0.0116,0.0077,0.0078,-0.0004,-0.0039,-0.0148,-0.028,-0.029,-0.0408,-0.0441,-0.0542,-0.0545,-0.0532,-0.0533,-0.0519,-0.0519,-0.0519,-0.0519,-0.0518,0,0.0054,0.0089,0.0111,0.0136,0.0193,0.0179,0.0218,0.0208,0.0194,0.0218,0.0132,0.0132,-0.0033,-0.0122,-0.0251,-0.0405,-0.039,-0.053,-0.0564,-0.0512,-0.0511,-0.0524,-0.0524,-0.0521,-0.052,-0.052,-0.052,0,0.0104,0.0115,0.0172,0.0204,0.0218,0.0255,0.0283,0.0309,0.0286,0.0313,0.0308,0.0227,0.0111,-0.0055,-0.0232,-0.0361,-0.0508,-0.0566,-0.0492,-0.0516,-0.0627,-0.0623,-0.0685,-0.0687,-0.0688,-0.0689,-0.069,0,0.0133,0.0169,0.0227,0.0265,0.0281,0.0327,0.0364,0.0356,0.039,0.0381,0.041,0.0306,0.0255,-0.0021,-0.0251,-0.0479,-0.0522,-0.0605,-0.0623,-0.0618,-0.0645,-0.0639,-0.0633,-0.0583,-0.0583,-0.0583,-0.0583,0,0.0196,0.0213,0.0262,0.0341,0.0389,0.0451,0.05,0.0542,0.0546,0.0566,0.0579,0.0534,0.0284,0.0067,-0.0257,-0.0414,-0.0568,-0.0615,-0.0625,-0.0553,-0.0529,-0.0553,-0.0549,-0.0583,-0.0583,-0.0583,-0.0583,-0.0583,0.0242,0.029,0.0353,0.043,0.049,0.0572,0.0631,0.0698,0.0763,0.0822,0.0737,0.0694,0.0415,0.0032,-0.0257,-0.056,-0.0563,-0.067,-0.0667,-0.0664,-0.0645,-0.0625,-0.0693,-0.0694,-0.0695,-0.0695,-0.0695,0,0.032,0.036,0.0438,0.053,0.062,0.0622,0.0726,0.0815,0.0923,0.0949,0.0954,0.0729,0.0442,0.0121,-0.031,-0.0593,-0.06,-0.0693,-0.0629,-0.0627,-0.0626,-0.0603,-0.0641,-0.0642,-0.0642,-0.0643,0,0,0.0359,0.0456,0.0498,0.0645,0.0695,0.0834,0.0899,0.1023,0.1089,0.1153,0.1112,0.099,0.0567,0.027,-0.0118,-0.0373,-0.0436,-0.0428,-0.0441,-0.0318,-0.0313,-0.0583,-0.0543,0,0,0,0,0]}],[{"header":{"parameterUnit":"m.s-1","parameterCategory":2,"la1":30.2991,"la2":30.254,"lo1":-89.0895,"lo2":-89.0444,"dy":0.0017,"dx":0.0017,"nx":28,"ny":28,"refTime":"2025-12-30T03:00:00:Z","depth":"4","parameterNumber":2,"parameterNumberName":"U-component_of_CURRENTS"},"data":[0,0,0,0,0,0,0,0,0,0,0,0,0,0,0,0,0,0,0,0,0,0,0,0,0,0,0,0,0,0,0,0,0,0,0,0,0,0,0,0,0,0,0,0,0,0,0,0,0,0,0,0,0,0,0,0,0,0,0.1189,0.1189,0,0.1258,0.1259,0.1259,0.1309,0.131,0.1311,0.1311,0.1371,0.1372,0.1373,0,0,0,0,0,0,0,0,0,0,0,0,0,0.1081,0.1082,0.1188,0.1189,0.119,0.1258,0.1259,0.1259,0.1309,0.131,0.1311,0.1311,0.1371,0.1372,0.1374,0,0,0,0,0,0,0,0,0,0,0,0,0,0.1135,0.1083,0.1188,0.1225,0.1229,0.1258,0.1259,0.126,0.1309,0.131,0.1311,0.1312,0.1371,0.1372,0.1374,0.1367,0,0,0.1379,0.1379,0,0,0,0,0,0,0,0,0.1132,0.1139,0.1218,0.1222,0.1227,0.1277,0.1243,0.1296,0.1309,0.1277,0.1311,0.1312,0.134,0.1344,0.1353,0.1369,0.1372,0.1379,0.138,0.138,0.1381,0,0,0,0,0,0,0,0.1128,0.1136,0.1214,0.1219,0.1225,0.1232,0.124,0.1253,0.1301,0.128,0.1284,0.1294,0.1342,0.1351,0.1354,0.1373,0.1379,0.138,0.1381,0.1382,0.1469,0.147,0,0,0,0,0,0,0.1123,0.1133,0.1212,0.1217,0.1182,0.1233,0.1243,0.1259,0.1301,0.1309,0.1293,0.1296,0.1348,0.1352,0.1357,0.1429,0.138,0.1382,0.1383,0.1467,0.1469,0.1471,0,0,0,0,0,0,0.1121,0.113,0.1209,0.1177,0.1188,0.1234,0.1252,0.126,0.1297,0.1312,0.132,0.1326,0.1349,0.1354,0.1397,0.1428,0.1383,0.1384,0.1466,0.1468,0.147,0.1522,0,0,0,0,0,0,0.1117,0.1129,0.1149,0.1177,0.119,0.1244,0.1252,0.1261,0.1301,0.1306,0.1342,0.1347,0.135,0.1394,0.1398,0.143,0.1385,0.1464,0.1467,0.1469,0.1519,0.1526,0.1532,0,0,0,0,0,0.1113,0.1134,0.115,0.116,0.1213,0.1245,0.1253,0.1286,0.1302,0.1322,0.1351,0.1347,0.1413,0.1397,0.1401,0.1434,0.1463,0.1466,0.1469,0.1516,0.1524,0.1531,0,0,0,0,0,0,0.1099,0.1142,0.116,0.1194,0.1226,0.1255,0.1281,0.13,0.1338,0.1352,0.1363,0.137,0.1419,0.1418,0.14,0.1466,0.1438,0.1442,0.1472,0.148,0.1486,0.1485,0.1387,0,0,0,0,0,0.1104,0.1136,0.1171,0.1202,0.122,0.1255,0.1277,0.13,0.1332,0.1351,0.1377,0.1404,0.1429,0.1449,0.1468,0.1503,0.1502,0.1527,0.1533,0.1539,0.1542,0.1566,0.1575,0.148,0.148,0.148,0,0,0.1107,0.1137,0.1155,0.1202,0.1231,0.1262,0.1271,0.1313,0.1346,0.135,0.141,0.1429,0.1444,0.1487,0.1509,0.1494,0.1568,0.1543,0.1547,0.1547,0.157,0.1579,0.1587,0.1483,0.1482,0.1482,0,0,0.1119,0.1156,0.1184,0.1214,0.1263,0.1284,0.1302,0.1347,0.1379,0.1428,0.1443,0.1482,0.1522,0.1541,0.1553,0.1605,0.1601,0.1617,0.1652,0.1676,0.1683,0.169,0.171,0.1718,0.1621,0.1621,0.1621,0,0.1121,0.1164,0.1196,0.1229,0.126,0.1297,0.1331,0.1364,0.142,0.1449,0.1457,0.1532,0.1546,0.1595,0.1618,0.162,0.1632,0.1621,0.1684,0.169,0.1696,0.1714,0.1723,0.1624,0.1624,0.1623,0.1623,0,0.1147,0.119,0.1211,0.1267,0.1301,0.1339,0.1384,0.1429,0.147,0.1501,0.157,0.1594,0.1638,0.1652,0.1653,0.1709,0.1704,0.1688,0.1662,0.1709,0.1725,0.1733,0.1628,0.1627,0.1626,0.1625,0,0,0.1126,0.1212,0.1222,0.1259,0.1328,0.1357,0.1417,0.1478,0.1525,0.1578,0.1636,0.1686,0.1707,0.1721,0.1734,0.1756,0.1813,0.1748,0.1748,0.1764,0.1871,0.1782,0.1781,0.1812,0.1814,0.1815,0.1868,0,0.114,0.1206,0.1248,0.1315,0.1352,0.1408,0.1459,0.152,0.1575,0.1638,0.1676,0.1734,0.1731,0.1764,0.1788,0.1809,0.1834,0.18,0.1826,0.1827,0.1738,0.1787,0.182,0.1874,0.1875,0.1877,0.1877,0,0.1147,0.1195,0.1262,0.135,0.1372,0.1418,0.1511,0.1564,0.165,0.1694,0.1756,0.1788,0.1848,0.1829,0.1889,0.1872,0.188,0.1885,0.1887,0.1787,0.175,0.1815,0.1891,0.189,0.1889,0.1888,0.1887,0,0.1111,0.1204,0.1262,0.1292,0.1391,0.1439,0.1497,0.1586,0.164,0.1738,0.1786,0.1851,0.1899,0.1921,0.1947,0.1928,0.1999,0.1967,0.1892,0.1886,0.1927,0.1919,0.2002,0.2002,0.2002,0.2002,0.2002,0,0.11,0.1149,0.1256,0.1287,0.136,0.1436,0.1516,0.1584,0.168,0.1744,0.1818,0.1868,0.1927,0.1973,0.1974,0.1963,0.2025,0.1907,0.1896,0.1949,0.1943,0.1933,0.1924,0.2004,0.2004,0.2003,0.2003,0,0.105,0.1122,0.1192,0.1306,0.1346,0.1399,0.1521,0.1575,0.1678,0.1764,0.1801,0.1904,0.1963,0.2006,0.2049,0.1995,0.1993,0.1972,0.2042,0.2033,0.1856,0.1849,0.1883,0.188,0.1878,0.1876,0.1875,0,0.1027,0.1062,0.1189,0.1233,0.1291,0.1381,0.144,0.1559,0.1616,0.177,0.1801,0.1905,0.1959,0.1942,0.1996,0.1998,0.1973,0.1957,0.1885,0.1858,0.1845,0.1842,0.1839,0.1871,0.187,0.187,0.1869,0,0.0981,0.1038,0.1096,0.1183,0.1257,0.1328,0.1425,0.1453,0.1592,0.17,0.1756,0.179,0.1856,0.188,0.1904,0.1898,0.1956,0.1932,0.1936,0.1868,0.1844,0.1832,0.1832,0.1861,0.1862,0.1863,0.1864,0,0.0945,0.0969,0.105,0.1119,0.1204,0.1251,0.1312,0.1383,0.145,0.1617,0.1634,0.1742,0.184,0.1831,0.1853,0.1845,0.1807,0.1734,0.1747,0.1756,0.1691,0.164,0.1592,0,0,0,0,0,0.0897,0.0919,0.0979,0.1046,0.1125,0.1174,0.1291,0.1354,0.1485,0.1487,0.1555,0.1609,0.1649,0.1704,0.1669,0.1801,0.1815,0.1753,0.1737,0.1818,0.1827,0.1761,0,0,0,0,0,0,0.0866,0.0917,0.0947,0.0969,0.0997,0.1073,0.1141,0.1235,0.1243,0.1378,0.1403,0.151,0.1567,0.1642,0.1632,0.1651,0.161,0.1826,0.1822,0.1812,0.1821,0.1828,0.1764,0,0,0,0,0]},{"header":{"parameterUnit":"m.s-1","parameterCategory":2,"la1":30.2991,"la2":30.254,"lo1":-89.0895,"lo2":-89.0444,"dy":0.0017,"dx":0.0017,"nx":28,"ny":28,"refTime":"2025-12-30T03:00:00:Z","depth":"4","parameterNumber":3,"parameterNumberName":"V-component_of_CURRENTS"},"data":[0,0,0,0,0,0,0,0,0,0,0,0,0,0,0,0,0,0,0,0,0,0,0,0,0,0,0,0,0,0,0,0,0,0,0,0,0,0,0,0,0,0,0,0,0,0,0,0,0,0,0,0,0,0,0,0,0,0,0.0107,0.0107,0,0.0062,0.0061,0.0061,0.0024,0.0024,0.0024,0.0024,-0.003,-0.0031,-0.0032,0,0,0,0,0,0,0,0,0,0,0,0,0,0.0145,0.0144,0.0108,0.0107,0.0106,0.0062,0.0061,0.0061,0.0025,0.0024,0.0024,0.0023,-0.003,-0.0031,-0.0033,0,0,0,0,0,0,0,0,0,0,0,0,0,0.0116,0.0144,0.0108,0.0084,0.0081,0.0062,0.0061,0.006,0.0025,0.0024,0.0024,0.0023,-0.0029,-0.0031,-0.0033,-0.0034,0,0,-0.0038,-0.0039,0,0,0,0,0,0,0,0,0.0118,0.0115,0.0088,0.0085,0.0082,0.0049,0.0055,0.0029,0.0025,0.0045,0.0024,0.0023,-0.0004,-0.0008,-0.0016,-0.0037,-0.0039,-0.0038,-0.0039,-0.004,-0.004,0,0,0,0,0,0,0,0.012,0.0117,0.0089,0.0087,0.0084,0.0069,0.0064,0.0049,0.0023,0.0044,0.0041,0.0037,-0.0005,-0.0014,-0.0017,-0.004,-0.0038,-0.004,-0.0041,-0.0041,-0.0092,-0.0093,0,0,0,0,0,0,0.0128,0.0119,0.009,0.0088,0.01,0.0068,0.0063,0.006,0.0024,0.0018,0.0037,0.0035,-0.0011,-0.0015,-0.0019,-0.0039,-0.004,-0.0041,-0.0042,-0.0092,-0.0092,-0.0093,0,0,0,0,0,0,0.0129,0.0126,0.0092,0.0102,0.0097,0.0068,0.0064,0.0059,0.0048,0.0019,0.0013,0.0031,-0.0012,-0.0017,-0.0037,-0.004,-0.0042,-0.0044,-0.0092,-0.0092,-0.0093,-0.0067,0,0,0,0,0,0,0.0131,0.0127,0.0128,0.0103,0.0097,0.0084,0.0065,0.0058,0.0046,0.0043,0.0012,0.0007,-0.0012,-0.0034,-0.0039,-0.0043,-0.0045,-0.0091,-0.0092,-0.0092,-0.0068,-0.0067,-0.0066,0,0,0,0,0,0.0132,0.0138,0.0128,0.0125,0.0099,0.0084,0.0079,0.0057,0.0046,0.0044,0.0019,0.0007,-0.0042,-0.0036,-0.0041,-0.0046,-0.0091,-0.0092,-0.0092,-0.0068,-0.0067,-0.0066,0,0,0,0,0,0,0.0154,0.0134,0.0123,0.0122,0.0105,0.0078,0.0076,0.006,0.0038,0.0035,0.0006,-0.0001,-0.0021,-0.0036,-0.0029,-0.0063,-0.0069,-0.0071,-0.0049,-0.0048,-0.0047,-0.0035,-0.0047,0,0,0,0,0,0.016,0.0159,0.0135,0.0134,0.0128,0.0102,0.0094,0.0078,0.0056,0.0046,0.0023,-0.0004,-0.0028,-0.0039,-0.0061,-0.0075,-0.0097,-0.0083,-0.0082,-0.0082,-0.0076,-0.0118,-0.0121,-0.0095,-0.0095,-0.0095,0,0,0.0169,0.0158,0.0157,0.0139,0.0125,0.0121,0.0096,0.0086,0.0079,0.0045,0.0028,0.0,-0.0031,-0.0051,-0.0062,-0.0064,-0.0101,-0.0083,-0.0081,-0.0076,-0.0119,-0.0122,-0.0124,-0.0096,-0.0096,-0.0096,0,0,0.019,0.0176,0.0183,0.0172,0.0154,0.0136,0.0135,0.0108,0.0092,0.0074,0.0043,0.0013,-0.0017,-0.0045,-0.0062,-0.0069,-0.0095,-0.0077,-0.0062,-0.0104,-0.0106,-0.0108,-0.0139,-0.0144,-0.0077,-0.0077,-0.0077,0,0.0202,0.0205,0.0183,0.0186,0.018,0.0146,0.0152,0.0131,0.0099,0.0086,0.0073,0.0012,-0.0015,-0.0047,-0.0052,-0.0066,-0.0091,-0.0062,-0.0102,-0.0105,-0.0108,-0.0138,-0.0144,-0.0075,-0.0076,-0.0076,-0.0076,0,0.0227,0.0228,0.0232,0.0224,0.0214,0.0213,0.0184,0.0169,0.0144,0.0119,0.0082,0.0038,0.0002,-0.0017,-0.0036,-0.0071,-0.0082,-0.0096,-0.0102,-0.0109,-0.0141,-0.0147,-0.0074,-0.0074,-0.0075,-0.0075,0,0,0.0259,0.0252,0.0254,0.0258,0.0234,0.0231,0.0218,0.0195,0.0186,0.0142,0.0124,0.0068,0.0038,0.0017,-0.002,-0.0058,-0.0102,-0.0082,-0.0084,-0.0106,-0.0189,-0.0176,-0.0182,-0.0126,-0.0127,-0.0127,-0.0203,0,0.0286,0.0305,0.0289,0.0304,0.0311,0.0277,0.027,0.0242,0.0208,0.0181,0.0122,0.0092,0.0052,0.0034,-0.0013,-0.0078,-0.0119,-0.008,-0.0183,-0.0186,-0.017,-0.0189,-0.0131,-0.0208,-0.0209,-0.021,-0.0211,0,0.0317,0.0325,0.0348,0.0348,0.0348,0.0348,0.0329,0.0316,0.0265,0.024,0.0189,0.0141,0.0079,0.0047,-0.007,-0.0044,-0.0112,-0.0165,-0.017,-0.0169,-0.0186,-0.0201,-0.0224,-0.0223,-0.0222,-0.0221,-0.022,0,0.0357,0.0367,0.0389,0.0389,0.0381,0.0383,0.0374,0.0335,0.0329,0.0275,0.0265,0.0175,0.0139,0.0038,-0.0074,-0.0076,-0.0201,-0.0219,-0.0273,-0.0273,-0.0272,-0.0269,-0.0304,-0.0303,-0.0303,-0.0303,-0.0303,0,0.0391,0.041,0.0412,0.0423,0.0451,0.0426,0.0438,0.0415,0.0385,0.0384,0.0301,0.028,0.0133,0.0044,-0.0063,-0.0184,-0.0197,-0.0271,-0.0293,-0.0259,-0.0254,-0.0277,-0.0273,-0.0306,-0.0305,-0.0305,-0.0304,0,0.043,0.0431,0.0461,0.0466,0.0472,0.049,0.0492,0.0498,0.0464,0.046,0.0449,0.0351,0.0234,0.0089,-0.0076,-0.0158,-0.0281,-0.0321,-0.0265,-0.0283,-0.0328,-0.0322,-0.0391,-0.0391,-0.0391,-0.0392,-0.0392,0,0.045,0.0472,0.05,0.0523,0.0528,0.0549,0.0568,0.0544,0.0552,0.0507,0.0514,0.0403,0.0324,0.0108,-0.0054,-0.026,-0.0289,-0.035,-0.0351,-0.0324,-0.0339,-0.0332,-0.0326,-0.0392,-0.0392,-0.0392,-0.0392,0,0.0489,0.0503,0.0527,0.0577,0.0608,0.064,0.066,0.0672,0.0648,0.0622,0.0569,0.0444,0.0311,0.0124,-0.0037,-0.0186,-0.031,-0.0353,-0.0354,-0.0355,-0.0326,-0.0339,-0.0333,-0.0393,-0.0393,-0.0393,-0.0393,0,0.0521,0.0547,0.0583,0.0626,0.0673,0.0714,0.0716,0.0718,0.0717,0.0662,0.0645,0.0488,0.0385,0.0163,0.0016,-0.0132,-0.0174,-0.0217,-0.0226,-0.0227,-0.016,-0.0098,-0.0114,0,0,0,0,0,0.0546,0.058,0.0626,0.0675,0.0723,0.0754,0.0775,0.0769,0.0749,0.0727,0.0683,0.0558,0.0326,0.022,0.0076,0.0005,-0.0201,-0.0169,-0.0255,-0.0397,-0.0396,-0.0345,0,0,0,0,0,0,0.0564,0.0613,0.0634,0.0709,0.0754,0.0811,0.0832,0.0817,0.0792,0.0748,0.0626,0.0541,0.0314,0.0422,0.0085,0.0036,-0.0036,-0.0287,-0.029,-0.0397,-0.0396,-0.0396,-0.0343,0,0,0,0,0]}]]